Michigan City, IN

4:04 PM CST on December 06, 2016 (GMT -0600)
Michigan City Municipal

Weather History for KMGC - January, 2013

Change the Weather History Date:

Tuesday, January 8, 2013

  Actual Average (KVPZ) Record (KVPZ)
Temperature  
Mean Temperature 32 °F 24 °F  
Max Temperature 37 °F 31 °F 57 °F (2008)
Min Temperature 28 °F 16 °F -9 °F (2015)
Degree Days  
Heating Degree Days 32 41  
Month to date heating degree days 328  
Since 1 July heating degree days 2730  
Cooling Degree Days 0 0  
Month to date cooling degree days 0  
Year to date cooling degree days 0  
Moisture  
Dew Point 26 °F    
Average Humidity 75    
Maximum Humidity 80    
Minimum Humidity 70    
Precipitation  
Precipitation 0.00 in 0.06 in 1.45 in (2008)
Month to date precipitation 0.44  
Year to date precipitation 0.44  
Sea Level Pressure  
Sea Level Pressure 30.14 in    
Wind  
Wind Speed 8 mph (South)    
Max Wind Speed 14 mph    
Max Gust Speed 22 mph    
Visibility 10 miles    
Events      
T = Trace of Precipitation, MM = Missing Value Source: NWS Daily Summary

Daily Weather History Graph

Daily Weather History Graph

Search for Another Location

Airport or City:

Trip Planner

Search our weather history database for the weather conditions in past years. The results will help you decide how hot, cold, wet, or windy it might be!

Date:

Astronomy

Jan. 08, 2013 Rise Set
Actual Time 7:14 AM CST 4:34 PM CST
Civil Twilight 6:43 AM CST 5:05 PM CST
Nautical Twilight 6:08 AM CST 5:40 PM CST
Astronomical Twilight 5:34 AM CST 6:13 PM CST
Moon 3:46 AM CST (1/8) 1:36 PM CST (1/8)
Length of Visible Light 10h 22m
Length of Day
9h 20m
Waning Crescent, 13% of the Moon is Illuminated
Jan 8
Waning Crescent
Jan 11
New
Jan 18
First Quarter
Jan 26
Full
Feb 3
Last Quarter

Hourly Weather History & Observations

Time (CST) Temp. Windchill Dew Point Humidity Pressure Visibility Wind Dir Wind Speed Gust Speed Precip Events Conditions
12:15 AM 30.2 °F 23.4 °F 23.0 °F 75% 30.15 in 10.0 mi SSW 6.9 mph - N/A   Clear
12:35 AM 30.2 °F 21.3 °F 23.0 °F 75% 30.15 in 10.0 mi SSW 10.4 mph - N/A   Clear
12:55 AM 30.2 °F 21.3 °F 23.0 °F 75% 30.15 in 10.0 mi SSW 10.4 mph - N/A   Clear
1:15 AM 30.2 °F 21.3 °F 23.0 °F 75% 30.15 in 10.0 mi SSW 10.4 mph - N/A   Clear
1:35 AM 30.2 °F 21.3 °F 23.0 °F 75% 30.15 in 10.0 mi SSW 10.4 mph - N/A   Clear
1:55 AM 30.2 °F 21.3 °F 23.0 °F 75% 30.15 in 10.0 mi SSW 10.4 mph - N/A   Clear
2:15 AM 30.2 °F 22.6 °F 23.0 °F 75% 30.14 in 10.0 mi South 8.1 mph - N/A   Clear
2:35 AM 30.2 °F 22.6 °F 23.0 °F 75% 30.15 in 10.0 mi SSW 8.1 mph - N/A   Clear
2:55 AM 30.2 °F 24.3 °F 23.0 °F 75% 30.15 in 10.0 mi South 5.8 mph - N/A   Clear
3:15 AM 30.2 °F 22.6 °F 23.0 °F 75% 30.15 in 10.0 mi SSW 8.1 mph - N/A   Clear
3:35 AM 30.2 °F 23.4 °F 23.0 °F 75% 30.14 in 10.0 mi SSW 6.9 mph - N/A   Clear
3:55 AM 30.2 °F 23.4 °F 23.0 °F 75% 30.14 in 10.0 mi SSW 6.9 mph - N/A   Clear
4:15 AM 30.2 °F 24.3 °F 23.0 °F 75% 30.14 in 10.0 mi South 5.8 mph - N/A   Clear
4:35 AM 30.2 °F 23.4 °F 23.0 °F 75% 30.14 in 10.0 mi SSW 6.9 mph - N/A   Clear
4:55 AM 28.4 °F 20.4 °F 23.0 °F 80% 30.14 in 10.0 mi SSW 8.1 mph - N/A   Clear
5:15 AM 28.4 °F 21.2 °F 23.0 °F 80% 30.14 in 10.0 mi SSW 6.9 mph - N/A   Clear
5:35 AM 28.4 °F 22.2 °F 23.0 °F 80% 30.15 in 10.0 mi SSW 5.8 mph - N/A   Clear
6:15 AM 28.4 °F 22.2 °F 23.0 °F 80% 30.15 in 10.0 mi South 5.8 mph - N/A   Clear
6:35 AM 28.4 °F 23.3 °F 23.0 °F 80% 30.16 in 10.0 mi SSW 4.6 mph - N/A   Clear
6:55 AM 28.4 °F 22.2 °F 23.0 °F 80% 30.16 in 10.0 mi South 5.8 mph - N/A   Clear
7:15 AM 28.4 °F 23.3 °F 23.0 °F 80% 30.17 in 7.0 mi South 4.6 mph - N/A   Clear
7:35 AM 28.4 °F 22.2 °F 23.0 °F 80% 30.17 in 7.0 mi South 5.8 mph - N/A   Clear
7:55 AM 30.2 °F 25.4 °F 23.0 °F 75% 30.18 in 7.0 mi South 4.6 mph - N/A   Clear
8:15 AM 30.2 °F 24.3 °F 24.8 °F 80% 30.19 in 7.0 mi South 5.8 mph - N/A   Clear
8:35 AM 32.0 °F 25.6 °F 24.8 °F 75% 30.20 in 7.0 mi South 6.9 mph - N/A   Clear
8:55 AM 32.0 °F 27.5 °F 24.8 °F 75% 30.19 in 7.0 mi South 4.6 mph - N/A   Clear
9:15 AM 32.0 °F 25.6 °F 24.8 °F 75% 30.20 in 10.0 mi South 6.9 mph - N/A   Clear
9:35 AM 32.0 °F 24.8 °F 26.6 °F 80% 30.20 in 10.0 mi South 8.1 mph - N/A   Clear
9:55 AM 32.0 °F 24.2 °F 26.6 °F 80% 30.20 in 10.0 mi SSW 9.2 mph - N/A   Clear
10:15 AM 33.8 °F 27.0 °F 26.6 °F 75% 30.20 in 10.0 mi South 8.1 mph - N/A   Clear
10:35 AM 33.8 °F 26.4 °F 26.6 °F 75% 30.19 in 10.0 mi SSW 9.2 mph - N/A   Clear
10:55 AM 35.6 °F 30.7 °F 26.6 °F 70% 30.19 in 7.0 mi South 5.8 mph - N/A   Clear
11:15 AM 33.8 °F 26.4 °F 26.6 °F 75% 30.19 in 10.0 mi South 9.2 mph - N/A   Clear
11:35 AM 35.6 °F 30.7 °F 26.6 °F 70% 30.18 in 10.0 mi South 5.8 mph - N/A   Clear
11:55 AM 35.6 °F 29.2 °F 26.6 °F 70% 30.17 in 10.0 mi South 8.1 mph - N/A   Clear
12:35 PM 35.6 °F 31.7 °F 26.6 °F 70% 30.15 in 10.0 mi South 4.6 mph - N/A   Clear
12:55 PM 35.6 °F 31.7 °F 28.4 °F 75% 30.15 in 10.0 mi SSE 4.6 mph - N/A   Clear
1:15 PM 35.6 °F 30.7 °F 26.6 °F 70% 30.15 in 10.0 mi SSE 5.8 mph - N/A   Clear
1:55 PM 37.4 °F 31.4 °F 28.4 °F 70% 30.14 in 10.0 mi South 8.1 mph - N/A   Clear
2:15 PM 37.4 °F 32.1 °F 28.4 °F 70% 30.14 in 10.0 mi SSE 6.9 mph - N/A   Clear
2:35 PM 37.4 °F 29.3 °F 28.4 °F 70% 30.15 in 10.0 mi SSE 12.7 mph - N/A   Clear
2:55 PM 35.6 °F 31.7 °F 28.4 °F 75% 30.15 in 10.0 mi SSE 4.6 mph - N/A   Clear
3:15 PM 35.6 °F 29.2 °F 28.4 °F 75% 30.15 in 10.0 mi South 8.1 mph - N/A   Clear
3:35 PM 35.6 °F 29.9 °F 28.4 °F 75% 30.15 in 10.0 mi South 6.9 mph - N/A   Clear
3:55 PM 35.6 °F 29.2 °F 28.4 °F 75% 30.14 in 10.0 mi SSE 8.1 mph - N/A   Clear
4:15 PM 35.6 °F 29.2 °F 26.6 °F 70% 30.13 in 10.0 mi SSE 8.1 mph - N/A   Clear
4:35 PM 33.8 °F 26.4 °F 26.6 °F 75% 30.13 in 10.0 mi South 9.2 mph - N/A   Clear
4:55 PM 33.8 °F 27.7 °F 26.6 °F 75% 30.13 in 10.0 mi SSE 6.9 mph - N/A   Clear
5:15 PM 33.8 °F 28.6 °F 26.6 °F 75% 30.14 in 10.0 mi South 5.8 mph - N/A   Clear
5:35 PM 33.8 °F 27.0 °F 26.6 °F 75% 30.13 in 10.0 mi South 8.1 mph - N/A   Clear
5:55 PM 33.8 °F 27.0 °F 26.6 °F 75% 30.13 in 10.0 mi SSE 8.1 mph - N/A   Clear
6:15 PM 33.8 °F 26.4 °F 26.6 °F 75% 30.12 in 10.0 mi SSE 9.2 mph - N/A   Clear
6:35 PM 33.8 °F 27.7 °F 26.6 °F 75% 30.12 in 10.0 mi South 6.9 mph - N/A   Clear
6:55 PM 33.8 °F 25.8 °F 26.6 °F 75% 30.12 in 10.0 mi South 10.4 mph 16.1 mph N/A   Clear
7:55 PM 33.8 °F 25.8 °F 26.6 °F 75% 30.12 in 10.0 mi South 10.4 mph - N/A   Clear
8:15 PM 33.8 °F 26.4 °F 26.6 °F 75% 30.12 in 10.0 mi South 9.2 mph 16.1 mph N/A   Clear
8:35 PM 33.8 °F 26.4 °F 26.6 °F 75% 30.11 in 10.0 mi South 9.2 mph 17.3 mph N/A   Clear
8:55 PM 33.8 °F 25.3 °F 26.6 °F 75% 30.11 in 10.0 mi South 11.5 mph 17.3 mph N/A   Clear
9:15 PM 35.6 °F 27.1 °F 26.6 °F 70% 30.10 in 10.0 mi South 12.7 mph 20.7 mph N/A   Scattered Clouds
9:35 PM 35.6 °F 26.6 °F 28.4 °F 75% 30.10 in 10.0 mi SSW 13.8 mph 19.6 mph N/A   Scattered Clouds
9:55 PM 35.6 °F 27.5 °F 28.4 °F 75% 30.08 in 10.0 mi SSW 11.5 mph 20.7 mph N/A   Clear
10:15 PM 35.6 °F 27.1 °F 28.4 °F 75% 30.09 in 10.0 mi SSW 12.7 mph 21.9 mph N/A   Clear
10:35 PM 35.6 °F 27.5 °F 28.4 °F 75% 30.08 in 10.0 mi SSW 11.5 mph 17.3 mph N/A   Scattered Clouds
10:55 PM 35.6 °F 27.5 °F 28.4 °F 75% 30.09 in 10.0 mi SSW 11.5 mph 16.1 mph N/A   Clear
11:15 PM 35.6 °F 27.5 °F 28.4 °F 75% 30.08 in 10.0 mi South 11.5 mph 19.6 mph N/A   Clear
11:35 PM 35.6 °F 28.0 °F 28.4 °F 75% 30.08 in 10.0 mi SSW 10.4 mph - N/A   Clear
11:55 PM 35.6 °F 27.5 °F 28.4 °F 75% 30.07 in 10.0 mi South 11.5 mph 18.4 mph N/A   Clear